Tracking 19280 objects as of 15-Nov-2018
HD Live streaming from Space Station
objects crossing your sky now

COSMOS 642

Track COSMOS 642 now!
10-day predictions
COSMOS 642 is classified as:


NORAD ID: 7266
Int'l Code: 1974-024B
Perigee: 1,326.2 km
Apogee: 1,486.4 km
Inclination: 74.0 °
Period: 113.8 minutes
Semi major axis: 7777 km
RCS: 0.7579 m2 (medium)
Launch date: April 23, 1974
Source: Commonwealth of Independent States (former USSR) (CIS)
Launch site: PLESETSK MISSILE AND SPACE COMPLEX (PKMTR)
aabbcc
Your satellite tracking list
Your tracking list is empty




NASA's NSSDC Master Catalog

Two Line Element Set (TLE):
1  7266U 74024B   18318.90311294 -.00000006 +00000-0 +53672-4 0  9992
2  7266 074.0161 107.0741 0102952 134.1932 022.7601 12.65786344059035
Source of the keplerian elements: AFSPC